[[{"header":{"parameterUnit":"m.s-1","parameterCategory":1,"la1":30.2991,"la2":30.254,"lo1":-89.0895,"lo2":-89.0444,"dy":0.0017,"dx":0.0017,"nx":28,"ny":28,"refTime":"2025-04-05T21:00:00:Z","depth":0,"parameterNumber":2,"parameterNumberName":"U-component_of_WINDS"},"data":[0,0,0,0,0,0,0,0,0,0,0,0,0,0,0,0,0,0,0,0,0,0,0,0,0,0,0,0,0,0,0,0,0,0,0,0,0,0,0,0,0,0,0,0,0,0,0,0,0,0,0,0,0,0,0,0,0,0,-4.7481,-4.7483,0,-4.7599,-4.76,-4.7601,-4.7621,-4.762,-4.7619,-4.7618,-4.7737,-4.7741,-4.7745,0,0,0,0,0,0,0,0,0,0,0,0,0,-4.7273,-4.7277,-4.7481,-4.7483,-4.7484,-4.7598,-4.76,-4.7602,-4.7622,-4.762,-4.7619,-4.7618,-4.7735,-4.774,-4.7745,0,0,0,0,0,0,0,0,0,0,0,0,0,-4.7374,-4.7278,-4.7481,-4.7508,-4.7511,-4.7598,-4.76,-4.7602,-4.7622,-4.762,-4.7619,-4.7617,-4.7734,-4.774,-4.7746,-4.7813,0,0,-4.7764,-4.7767,0,0,0,0,0,0,0,0,-4.7369,-4.7382,-4.7502,-4.7506,-4.751,-4.7594,-4.757,-4.7673,-4.7622,-4.758,-4.7618,-4.7617,-4.769,-4.77,-4.7725,-4.7819,-4.7824,-4.7765,-4.7769,-4.7771,-4.7773,0,0,0,0,0,0,0,-4.7362,-4.7377,-4.7528,-4.7504,-4.7509,-4.7514,-4.7527,-4.759,-4.7642,-4.7583,-4.7585,-4.7599,-4.7692,-4.7719,-4.7728,-4.7825,-4.7765,-4.777,-4.7774,-4.7776,-4.7981,-4.7982,0,0,0,0,0,0,-4.735,-4.7371,-4.7524,-4.7531,-4.7435,-4.7519,-4.7533,-4.7569,-4.7641,-4.7651,-4.76,-4.7599,-4.7709,-4.7721,-4.7732,-4.7815,-4.7771,-4.7777,-4.778,-4.7979,-4.7981,-4.7983,0,0,0,0,0,0,-4.7345,-4.7363,-4.7519,-4.7452,-4.7472,-4.7524,-4.7564,-4.7572,-4.7599,-4.7654,-4.7663,-4.7618,-4.7709,-4.7724,-4.7793,-4.782,-4.778,-4.7785,-4.7977,-4.798,-4.7982,-4.7982,0,0,0,0,0,0,-4.7339,-4.7362,-4.7388,-4.7452,-4.7475,-4.7578,-4.7565,-4.7575,-4.7609,-4.761,-4.7673,-4.7682,-4.7709,-4.7784,-4.7799,-4.7827,-4.779,-4.7975,-4.7978,-4.7981,-4.798,-4.7985,-4.7989,0,0,0,0,0,-4.7332,-4.7383,-4.7389,-4.7407,-4.7509,-4.758,-4.7593,-4.7623,-4.7611,-4.7638,-4.7674,-4.768,-4.7815,-4.7791,-4.7808,-4.7839,-4.7973,-4.7977,-4.7981,-4.7978,-4.7984,-4.7988,0,0,0,0,0,0,-4.7319,-4.7391,-4.7399,-4.7472,-4.752,-4.7583,-4.7617,-4.7628,-4.7678,-4.7676,-4.7711,-4.7725,-4.7793,-4.7823,-4.7795,-4.7908,-4.7893,-4.7901,-4.7885,-4.7891,-4.7895,-4.7885,-4.7795,0,0,0,0,0,-4.7325,-4.7376,-4.7437,-4.7496,-4.7519,-4.7564,-4.7596,-4.7615,-4.7665,-4.7685,-4.7726,-4.7774,-4.7827,-4.7861,-4.7913,-4.7986,-4.7999,-4.8016,-4.802,-4.8023,-4.8028,-4.8069,-4.8076,-4.7996,-4.7996,-4.7996,0,0,-4.7337,-4.7383,-4.7413,-4.7494,-4.7533,-4.7585,-4.7581,-4.7636,-4.7675,-4.7693,-4.7761,-4.7793,-4.7849,-4.792,-4.7954,-4.7947,-4.8054,-4.8028,-4.803,-4.8034,-4.8073,-4.8081,-4.8088,-4.7999,-4.7998,-4.7998,0,0,-4.7385,-4.7426,-4.7479,-4.7518,-4.7578,-4.7608,-4.7621,-4.7683,-4.7705,-4.7774,-4.7789,-4.7836,-4.7927,-4.7966,-4.7998,-4.8064,-4.8071,-4.808,-4.8101,-4.814,-4.8146,-4.8152,-4.8174,-4.8182,-4.8086,-4.8086,-4.8086,0,-4.7392,-4.7471,-4.7505,-4.7559,-4.7594,-4.7616,-4.7669,-4.7706,-4.7779,-4.7803,-4.7796,-4.7911,-4.795,-4.8031,-4.8047,-4.8073,-4.8088,-4.8071,-4.8143,-4.8149,-4.8155,-4.8176,-4.8184,-4.8086,-4.8086,-4.8086,-4.8086,0,-4.7476,-4.7531,-4.7567,-4.7638,-4.7678,-4.7732,-4.7773,-4.7809,-4.7826,-4.7857,-4.7927,-4.7976,-4.8038,-4.8059,-4.8075,-4.8142,-4.8136,-4.8136,-4.8121,-4.8162,-4.8183,-4.8191,-4.8087,-4.8087,-4.8087,-4.8087,0,0,-4.7516,-4.7607,-4.7619,-4.7652,-4.772,-4.7763,-4.7819,-4.7881,-4.791,-4.7961,-4.8008,-4.8086,-4.8086,-4.8122,-4.8144,-4.8178,-4.8226,-4.8173,-4.8175,-4.818,-4.8301,-4.83,-4.8309,-4.8233,-4.8235,-4.8236,-4.8296,0,-4.7571,-4.7671,-4.7703,-4.7786,-4.7837,-4.7859,-4.7907,-4.7954,-4.7985,-4.8033,-4.8067,-4.8121,-4.8118,-4.814,-4.8176,-4.8212,-4.825,-4.8209,-4.8275,-4.8277,-4.8258,-4.832,-4.8318,-4.8372,-4.8305,-4.8306,-4.8307,0,-4.7647,-4.77,-4.7788,-4.785,-4.7873,-4.7916,-4.7975,-4.8021,-4.8075,-4.8096,-4.8137,-4.8156,-4.8215,-4.82,-4.8281,-4.8252,-4.8282,-4.8304,-4.8307,-4.8312,-4.8292,-4.8324,-4.839,-4.8398,-4.832,-4.8319,-4.8318,0,-4.7666,-4.7759,-4.7823,-4.7851,-4.7926,-4.7955,-4.7988,-4.8041,-4.8076,-4.8129,-4.8152,-4.8211,-4.8242,-4.8287,-4.8322,-4.8307,-4.8399,-4.8387,-4.8417,-4.8416,-4.8433,-4.8431,-4.8502,-4.8456,-4.8456,-4.8456,-4.8455,0,-4.7722,-4.7774,-4.7832,-4.7872,-4.7931,-4.7969,-4.8027,-4.8061,-4.8108,-4.8154,-4.8178,-4.8221,-4.8265,-4.8314,-4.8342,-4.8404,-4.8419,-4.8436,-4.8443,-4.8433,-4.843,-4.8451,-4.8447,-4.8458,-4.8457,-4.8457,-4.8456,0,-4.7751,-4.7792,-4.7864,-4.793,-4.7948,-4.7989,-4.8045,-4.8084,-4.8117,-4.8175,-4.8191,-4.8243,-4.8302,-4.8342,-4.8417,-4.8436,-4.8503,-4.851,-4.8484,-4.8487,-4.8514,-4.851,-4.8599,-4.8612,-4.8559,-4.8559,-4.856,0,-4.7783,-4.7824,-4.7895,-4.7928,-4.796,-4.8013,-4.805,-4.8089,-4.8126,-4.8192,-4.8223,-4.8284,-4.8334,-4.8428,-4.8471,-4.8529,-4.8536,-4.8564,-4.8545,-4.8534,-4.8535,-4.8531,-4.8535,-4.8565,-4.8566,-4.8566,-4.8566,0,-4.7834,-4.7853,-4.7905,-4.7965,-4.8008,-4.8057,-4.8105,-4.8131,-4.8179,-4.822,-4.8281,-4.832,-4.8398,-4.8457,-4.852,-4.8553,-4.8567,-4.8573,-4.8582,-4.8571,-4.8554,-4.8562,-4.849,-4.8569,-4.8569,-4.8569,-4.8569,-4.8569,-4.7865,-4.7902,-4.7958,-4.8015,-4.8057,-4.8102,-4.8142,-4.8181,-4.8232,-4.8298,-4.8319,-4.8382,-4.8437,-4.8522,-4.8557,-4.8607,-4.8604,-4.8619,-4.8622,-4.8624,-4.8623,-4.8549,-4.8619,-4.8619,-4.8619,-4.8619,-4.8619,0,-4.7916,-4.7954,-4.8006,-4.8074,-4.8119,-4.8131,-4.8186,-4.8223,-4.8278,-4.8328,-4.8378,-4.8448,-4.8506,-4.8556,-4.8616,-4.8647,-4.8655,-4.8661,-4.8658,-4.8665,-4.8623,-4.8608,-4.8653,-4.8653,-4.8653,-4.8653,-4.8653,-4.8653,-4.7948,-4.8012,-4.8037,-4.8122,-4.816,-4.8222,-4.8252,-4.8294,-4.8334,-4.8411,-4.846,-4.8493,-4.8543,-4.8607,-4.8662,-4.8675,-4.8695,-4.8699,-4.8714,-4.8673,-4.8668,-4.8664,-4.865,-4.8704,-4.8704,-4.8752,-4.8752,-4.8753]},{"header":{"parameterUnit":"m.s-1","parameterCategory":1,"la1":30.2991,"la2":30.254,"lo1":-89.0895,"lo2":-89.0444,"dy":0.0017,"dx":0.0017,"nx":28,"ny":28,"refTime":"2025-04-05T21:00:00:Z","depth":0,"parameterNumber":3,"parameterNumberName":"V-component_of_WINDS"},"data":[0,0,0,0,0,0,0,0,0,0,0,0,0,0,0,0,0,0,0,0,0,0,0,0,0,0,0,0,0,0,0,0,0,0,0,0,0,0,0,0,0,0,0,0,0,0,0,0,0,0,0,0,0,0,0,0,0,0,5.7665,5.7666,0,5.7732,5.7733,5.7734,5.7724,5.7722,5.7721,5.772,5.7787,5.7789,5.7792,0,0,0,0,0,0,0,0,0,0,0,0,0,5.7527,5.7529,5.7665,5.7666,5.7667,5.7732,5.7733,5.7734,5.7724,5.7722,5.7721,5.772,5.7786,5.7789,5.7792,0,0,0,0,0,0,0,0,0,0,0,0,0,5.759,5.753,5.7665,5.7669,5.7671,5.7732,5.7733,5.7734,5.7724,5.7722,5.7721,5.7719,5.7785,5.7789,5.7793,5.7853,0,0,5.7806,5.7808,0,0,0,0,0,0,0,0,5.7586,5.7595,5.7668,5.7669,5.7671,5.7718,5.7709,5.7774,5.7725,5.7704,5.772,5.7718,5.7765,5.7771,5.7787,5.7856,5.7859,5.7806,5.7809,5.7811,5.7812,0,0,0,0,0,0,0,5.7582,5.7592,5.7691,5.7669,5.7671,5.7668,5.7675,5.7721,5.7743,5.7705,5.7705,5.7713,5.7765,5.7783,5.7788,5.786,5.7806,5.781,5.7812,5.7814,5.7985,5.7987,0,0,0,0,0,0,5.7576,5.7588,5.7689,5.7693,5.7623,5.7672,5.768,5.7704,5.7742,5.7747,5.7714,5.7712,5.7776,5.7784,5.7791,5.7866,5.7811,5.7814,5.7817,5.7983,5.7986,5.7988,0,0,0,0,0,0,5.7573,5.7585,5.7687,5.7641,5.7653,5.7676,5.7704,5.7707,5.7724,5.7749,5.7753,5.7729,5.7775,5.7785,5.7839,5.7868,5.7816,5.782,5.7981,5.7984,5.7987,5.8016,0,0,0,0,0,0,5.7569,5.7584,5.7607,5.7641,5.7656,5.7734,5.7706,5.7709,5.7732,5.773,5.7763,5.7767,5.7775,5.7832,5.7843,5.7873,5.7824,5.7979,5.7982,5.7986,5.8012,5.8019,5.8025,0,0,0,0,0,5.7565,5.7611,5.7609,5.7621,5.7685,5.7735,5.7743,5.7752,5.7734,5.7758,5.7775,5.7766,5.7863,5.7838,5.785,5.7882,5.7977,5.7981,5.7986,5.8009,5.8018,5.8025,0,0,0,0,0,0,5.7578,5.7616,5.7613,5.7672,5.7701,5.7733,5.7763,5.776,5.7793,5.779,5.7798,5.7806,5.7861,5.7876,5.7848,5.7944,5.7917,5.7925,5.7931,5.794,5.7946,5.7942,5.7827,0,0,0,0,0,5.7589,5.7627,5.7657,5.7707,5.7721,5.774,5.7762,5.7766,5.7796,5.7807,5.7828,5.7856,5.7893,5.7917,5.7952,5.8014,5.8023,5.8042,5.8049,5.8054,5.806,5.8097,5.8107,5.8003,5.8003,5.8003,0,0,5.761,5.7635,5.7658,5.771,5.7733,5.7772,5.775,5.7792,5.7821,5.7813,5.7866,5.7882,5.7915,5.7974,5.8001,5.7988,5.8091,5.806,5.8064,5.8067,5.8103,5.8113,5.8121,5.8006,5.8005,5.8005,0,0,5.7669,5.7691,5.7736,5.776,5.7795,5.7808,5.7819,5.7853,5.7864,5.7917,5.7913,5.7948,5.8011,5.8035,5.8056,5.8128,5.8122,5.8139,5.8173,5.8209,5.8217,5.8224,5.8252,5.8261,5.8145,5.8145,5.8145,0,5.769,5.775,5.7759,5.7803,5.7827,5.7823,5.787,5.7892,5.7936,5.7953,5.7939,5.8021,5.8042,5.8108,5.8126,5.8142,5.8155,5.8135,5.8215,5.8223,5.823,5.8256,5.8266,5.8147,5.8146,5.8146,5.8146,0,5.7776,5.7817,5.7849,5.7895,5.7922,5.7967,5.7983,5.801,5.8013,5.8027,5.8083,5.8109,5.8151,5.8167,5.8168,5.8234,5.8226,5.8213,5.8187,5.8241,5.8266,5.8276,5.8149,5.8149,5.8148,5.8148,0,0,5.7843,5.7896,5.7908,5.793,5.797,5.8002,5.8047,5.809,5.8114,5.8145,5.8184,5.8239,5.8229,5.8252,5.8257,5.8288,5.8347,5.8273,5.8273,5.8287,5.8423,5.8433,5.8444,5.8343,5.8345,5.8347,5.842,0,5.7908,5.7989,5.8,5.8072,5.8111,5.811,5.815,5.8179,5.8194,5.823,5.8246,5.8287,5.8269,5.8284,5.8314,5.8333,5.8374,5.8327,5.838,5.8382,5.8373,5.8457,5.8467,5.8535,5.843,5.8432,5.8433,0,5.7993,5.8029,5.8105,5.8143,5.816,5.8196,5.8237,5.8271,5.8305,5.8314,5.8342,5.8344,5.8392,5.8364,5.8431,5.8399,5.8421,5.8434,5.8437,5.8442,5.8411,5.8466,5.8557,5.8568,5.8448,5.8447,5.8446,0,5.8037,5.8105,5.816,5.8179,5.8223,5.8249,5.8268,5.83,5.8326,5.8362,5.838,5.842,5.8443,5.8474,5.8488,5.8466,5.8554,5.8527,5.8564,5.8564,5.8583,5.8582,5.868,5.8595,5.8595,5.8595,5.8595,0,5.8108,5.8155,5.8181,5.8215,5.8269,5.8282,5.8334,5.8353,5.8382,5.842,5.8421,5.8456,5.8471,5.8509,5.852,5.8575,5.8584,5.8594,5.8596,5.8594,5.8594,5.861,5.8606,5.8598,5.8597,5.8597,5.8596,0,5.8167,5.8186,5.8246,5.8285,5.8296,5.8334,5.8366,5.84,5.8416,5.8464,5.8476,5.8501,5.8546,5.8563,5.8617,5.8624,5.8689,5.8686,5.8678,5.8679,5.8716,5.8713,5.8828,5.8845,5.8748,5.8749,5.875,0,5.8211,5.8248,5.8291,5.8318,5.8339,5.8381,5.8408,5.8423,5.8451,5.8494,5.8523,5.8568,5.8606,5.8678,5.8701,5.8743,5.8743,5.8781,5.8749,5.8748,5.8746,5.8744,5.8749,5.8787,5.8788,5.8789,5.8789,0,5.8289,5.8298,5.8337,5.8382,5.8415,5.8449,5.8483,5.8505,5.8524,5.8556,5.8604,5.8633,5.869,5.8736,5.878,5.88,5.8799,5.8799,5.881,5.8809,5.8804,5.8809,5.8696,5.8796,5.8796,5.8795,5.8795,5.8795,5.8343,5.8377,5.8414,5.8459,5.8486,5.8519,5.8553,5.8575,5.8615,5.8663,5.8669,5.8721,5.8756,5.8816,5.8838,5.8879,5.8869,5.8884,5.8888,5.8892,5.8896,5.8797,5.8887,5.8886,5.8886,5.8886,5.8886,0,5.8423,5.8447,5.8489,5.8537,5.8573,5.857,5.8608,5.8638,5.8684,5.8717,5.8755,5.8811,5.8856,5.8883,5.8929,5.8957,5.8957,5.8968,5.8967,5.8972,5.8901,5.8888,5.8967,5.8967,5.8967,5.8967,5.8967,5.8967,5.8469,5.8527,5.854,5.8612,5.8636,5.8687,5.871,5.874,5.8767,5.883,5.8868,5.8886,5.8918,5.8966,5.9008,5.9015,5.9033,5.9045,5.9051,5.8985,5.8977,5.8969,5.8956,5.9048,5.9048,5.9119,5.9119,5.912]}]]